{"data":{"norad_id":68342,"intl_designator":"2026-059X","name":"STARLINK-37192","alt_names":[],"object_type":"PAYLOAD","status":"ACTIVE","operator":null,"country":"US","launch_date":"2026-03-22","launch_site_code":"AFETR","launch_vehicle":null,"mission":null,"orbit_class":"UNKNOWN","rcs_meters":null,"size_class":null,"mass_kg":null,"dimensions":null,"purposes":["comms"],"wikipedia_slug":null,"has_3d_model":false,"image_url":null,"decayed_at":null,"tle_current":{"epoch":"2026-09-20T04:35:06.317376Z","epoch_age_seconds":73917,"freshness":"FRESH","line1":"1 68342U 26059X   26263.19104534  .00016804  00000+0  50688-3 0  9999","line2":"2 68342  53.1581 157.0917 0001048  83.6674 276.4448 15.34429171 28063","mean_motion":15.34429171,"eccentricity":0.0001048,"inclination_deg":53.1581,"raan_deg":157.0917,"arg_perigee_deg":83.6674,"mean_anomaly_deg":276.4448,"bstar":0.00050688,"rev_number":2806,"period_min":93.845973943622,"perigee_km":461.89962825027,"apogee_km":463.33345019209,"semimajor_km":6840.7535392212,"source":"CELESTRAK","updated_at":"2026-09-20T09:00:43.889046Z"}}}